Pope Field Airport, NC

4:06 PM EDT on June 25, 2017 (GMT -0400)
Pope Field Airport

Weather History for KPOB - May, 2014

Change the Weather History Date:

Saturday, May 10, 2014

  Actual Average Record
Temperature  
Mean Temperature 78 °F -  
Max Temperature 90 °F 78 °F 93 °F (2003)
Min Temperature 68 °F 56 °F 40 °F (1980)
Cooling Degree Days 14    
Growing Degree Days 28 (Base 50)    
Moisture  
Dew Point 63 °F    
Average Humidity 64    
Maximum Humidity 87    
Minimum Humidity 32    
Precipitation  
Precipitation 0.00 in - - ()
Sea Level Pressure  
Sea Level Pressure 30.09 in    
Wind  
Wind Speed 8 mph (WSW)    
Max Wind Speed 22 mph    
Max Gust Speed 29 mph    
Visibility 10 miles    
Events Rain    
Averages and records for this station are not official NWS values.
T = Trace of Precipitation, MM = Missing Value Source: NWS Daily Summary

Daily Weather History Graph

Daily Weather History Graph

Search for Another Location

Airport or City:

Trip Planner

Search our weather history database for the weather conditions in past years. The results will help you decide how hot, cold, wet, or windy it might be!

Date:

Astronomy

May. 10, 2014 Rise Set
Actual Time 6:16 AM EDT 8:09 PM EDT
Civil Twilight 5:48 AM EDT 8:36 PM EDT
Nautical Twilight 5:14 AM EDT 9:10 PM EDT
Astronomical Twilight 4:38 AM EDT 9:46 PM EDT
Moon 4:12 PM EDT (5/10) 3:38 AM EDT (5/10)
Length of Visible Light 14h 48m
Length of Day
13h 52m
Waxing Gibbous, 82% of the Moon is Illuminated
May 10
Waxing Gibbous
May 14
Full
May 21
Last Quarter
May 28
New
Jun 5
First Quarter

Hourly Weather History & Observations

Time (EDT) Temp. Heat Index Dew Point Humidity Pressure Visibility Wind Dir Wind Speed Gust Speed Precip Events Conditions
12:58 AM 73.2 °F - 59.2 °F 61% 30.11 in 10.0 mi WNW 2.3 mph - N/A   Clear
1:58 AM 72.1 °F - 59.2 °F 64% 30.09 in 10.0 mi SW 4.6 mph - N/A   Clear
2:58 AM 73.4 °F - 60.1 °F 63% 30.07 in 10.0 mi SW 6.9 mph - N/A   Clear
3:58 AM 72.9 °F - 62.6 °F 70% 30.07 in 10.0 mi SW 5.8 mph - N/A   Scattered Clouds
4:58 AM 71.6 °F - 64.2 °F 77% 30.09 in 10.0 mi SW 6.9 mph - N/A   Clear
5:58 AM 70.2 °F - 64.9 °F 83% 30.11 in 10.0 mi WSW 4.6 mph - N/A   Scattered Clouds
6:58 AM 69.8 °F - 65.8 °F 87% 30.14 in 10.0 mi WSW 6.9 mph - N/A   Scattered Clouds
7:58 AM 71.8 °F - 67.1 °F 85% 30.14 in 10.0 mi WSW 9.2 mph - N/A   Scattered Clouds
8:58 AM 76.5 °F - 68.7 °F 77% 30.16 in 10.0 mi WSW 17.3 mph - N/A   Scattered Clouds
9:23 AM 77.0 °F - 68.0 °F 74% 30.14 in 10.0 mi SW 12.7 mph 19.6 mph N/A   Mostly Cloudy
9:48 AM 77.0 °F - 68.0 °F 74% 30.14 in 10.0 mi WSW 12.7 mph - N/A   Scattered Clouds
9:58 AM 77.9 °F - 68.2 °F 72% 30.14 in 10.0 mi SW 15.0 mph - N/A   Scattered Clouds
10:58 AM 79.7 °F - 68.0 °F 67% 30.14 in 10.0 mi SSW 12.7 mph - N/A   Partly Cloudy
11:58 AM 81.3 °F 84.1 °F 68.0 °F 64% 30.13 in 10.0 mi SSW 11.5 mph - N/A   Scattered Clouds
12:58 PM 84.9 °F 87.1 °F 66.2 °F 53% 30.12 in 10.0 mi SW 13.8 mph - N/A   Mostly Cloudy
1:58 PM 86.5 °F 86.5 °F 60.6 °F 42% 30.09 in 10.0 mi SSW 17.3 mph 21.9 mph N/A   Mostly Cloudy
2:58 PM 88.2 °F 87.6 °F 59.5 °F 38% 30.06 in 10.0 mi SW 13.8 mph 23.0 mph N/A   Partly Cloudy
3:40 PM 89.6 °F 88.1 °F 57.2 °F 33% 30.03 in 10.0 mi SSW 18.4 mph 26.5 mph N/A   Partly Cloudy
3:58 PM 88.9 °F 87.1 °F 55.2 °F 32% 30.03 in 10.0 mi SW 18.4 mph 25.3 mph N/A   Partly Cloudy
4:58 PM 86.5 °F 85.3 °F 56.5 °F 36% 30.03 in 10.0 mi SW 18.4 mph 24.2 mph N/A   Partly Cloudy
5:58 PM 84.2 °F 84.0 °F 59.7 °F 43% 30.04 in 10.0 mi WSW 12.7 mph - N/A   Partly Cloudy
6:58 PM 82.6 °F 83.4 °F 62.1 °F 50% 30.06 in 10.0 mi West 16.1 mph 20.7 mph N/A   Partly Cloudy
7:00 PM 82.4 °F 83.4 °F 62.6 °F 51% 30.07 in 10.0 mi NW 21.9 mph 28.8 mph N/A   Partly Cloudy
7:15 PM 73.4 °F - 60.8 °F 65% 30.08 in 10.0 mi NNW 15.0 mph 20.7 mph N/A Rain Light Rain
7:36 PM 69.8 °F - 62.6 °F 78% 30.07 in 10.0 mi NNW 4.6 mph - N/A   Partly Cloudy
7:58 PM 68.7 °F - 61.3 °F 77% 30.08 in 10.0 mi North 3.5 mph - 0.00 in   Scattered Clouds
8:58 PM 68.7 °F - 61.9 °F 79% 30.08 in 10.0 mi Calm Calm - N/A   Mostly Cloudy
9:58 PM 68.4 °F - 62.4 °F 81% 30.10 in 10.0 mi NNE 1.2 mph - N/A   Mostly Cloudy
10:58 PM 70.0 °F - 61.5 °F 74% 30.11 in 10.0 mi South 1.2 mph - N/A   Mostly Cloudy
11:10 PM 71.6 °F - 60.8 °F 69% 30.10 in 10.0 mi SSW 2.3 mph - N/A   Mostly Cloudy
11:58 PM 71.8 °F - 60.8 °F 68% 30.09 in 10.0 mi Variable 1.2 mph - N/A   Overcast